2022-072B (52936 NORAD) Tracking and Keplerian Element Data

This shows tracking and keplerian element data for the satellite.

Feedback or suggestion? Click here.




ElementValue
Catalog52936
Name2022-072B
Epoch Orbit172
Epoch Day193.07453418
Epoch Year2022
RAAN352.0075
Inclination9.9949
Eccentricity0.0007852
Argument of Perigee120.9539
Mean Anonmoly239.1327
Mean Motion14.9996292
Decay Rate6.239E-05
L11 52936U 22072B 22193.07453418 .00006239 00000+0 43156-3 0 9998
L22 52936 9.9949 352.0075 0007852 120.9539 239.1327 14.99962920 1728

Live tracking and technical data element details for 2022-072B (NORAD 52936). 2022-072B can be tracked NOW for your location showing map with azimuth and elevation plus other details from your city location.

Track the satellite on the map from your city or location and see movement details for azimuth, elevation, latitude, longitude, range, height, and movement on the map or in text.







IsCatalogInMostPopularTable: catalog: 52936, numindb: 9
Update: records affected: 1



GetName: 52936 2022-072B

Hit Count: updated at: Sun, 25 Sep 2022 08:30:09 GMT